OneWeb SL0389

operational
NORAD ID: 50469 Int'l Des: 2021-132 Owner: ONEWEBN Country: UK Constellation: oneweb
LEOCIRCULARPOLARONEWEB_TYPE

About OneWeb SL0389

Description loading...

Live Position

Loading 3D Globe...

Upcoming Passes

Altitude History

Altitude vs Time

uPlot chart will show altitude changes over time

Two-Line Element Set

1 50469U 21132A 26035.99384504 .00000045 00000-0 81939-4 0 9994
2 50469 87.9099 32.1324 0002150 82.2211 277.9165 13.17650682200678
Epoch: Feb 4, 2026 • Age: 11 hours

Current Status

Altitude 1220.0 km
Velocity 7.24 km/s
Sub-Earth Point -65.44°S, 95.06°E
Launch Date Dec 27, 2021
Age 4.1 years
Type internet

Technical Details

Classification Payload
Mass 148.00 kg
Dry Mass 140.00 kg
Total Mass 148.00 kg
Length 1.30 m
Diameter 1.00 m
Span 5.00 m
Shape Trapezoid+2 pan
Manufacturer ONEWUS
Bus Type ARROW
Phase Status In Orbit
Owner/State ONEWEBN/UK

Large Constellations

Loading constellations...